FW6114 Weather Reports


Display with metric or nautical units.
time (UTC)temp
F
wind
direction
speed
MPH
gust
MPH
rain 1hr
in
rain 24hr
in
rain mn
in
humidity
%
barometer
mb
20260506191551 48 360 0.0 0.0 0.00 0.01 0.00 72 1012.2
20260506190027 49 57 0.0 0.0 0.00 0.02 0.00 73 1012.1
20260506184521 50 57 0.0 0.0 0.00 0.02 0.00 66 1011.9
20260506183059 51 57 0.0 0.0 0.00 0.02 0.00 62 1011.8
20260506181535 52 65 0.0 3.0 0.00 0.02 0.00 60 1011.7
20260506180023 52 234 0.0 2.0 0.00 0.02 0.00 59 1011.6
20260506174519 53 306 0.0 1.0 0.00 0.02 0.00 59 1011.8
20260506173009 55 288 0.0 5.0 0.00 0.02 0.00 56 1011.9
20260506171505 57 101 1.0 6.0 0.00 0.02 0.00 53 1011.8
20260506170044 56 40 0.0 6.0 0.00 0.02 0.00 53 1011.8
20260506164519 57 132 0.0 7.0 0.00 0.02 0.00 52 1011.6
20260506163059 57 55 0.0 4.0 0.00 0.02 0.00 49 1011.5
20260506161527 57 44 0.0 4.0 0.00 0.02 0.00 51 1011.6
20260506160006 57 34 0.0 5.0 0.00 0.02 0.00 50 1011.7
20260506154547 55 56 0.0 0.0 0.00 0.02 0.00 57 1011.9
20260506153035 54 51 0.0 0.0 0.00 0.02 0.00 58 1011.9
20260506151528 55 119 0.0 1.0 0.00 0.02 0.00 56 1012.0
20260506150021 55 76 0.0 0.0 0.00 0.02 0.00 55 1011.9
20260506144516 56 98 0.0 0.0 0.00 0.02 0.00 56 1012.0
20260506143053 55 128 1.0 8.0 0.00 0.02 0.00 55 1012.1
20260506141604 55 124 0.0 3.0 0.00 0.02 0.00 52 1012.3
20260506140042 55 293 0.0 2.0 0.00 0.02 0.00 52 1012.4
20260506134538 56 143 0.0 6.0 0.00 0.02 0.00 49 1012.4
20260506133030 58 180 0.0 7.0 0.00 0.02 0.00 58 1012.5
20260506131523 56 44 0.0 4.0 0.00 0.02 0.00 55 1012.7
20260506130020 56 130 0.0 4.0 0.00 0.02 0.00 53 1012.7
20260506124549 56 170 0.0 4.0 0.00 0.02 0.00 47 1012.9
20260506123045 56 145 0.0 7.0 0.00 0.02 0.00 49 1012.8
20260506121514 54 55 0.0 1.0 0.00 0.02 0.00 57 1013.0
20260506120112 54 46 1.0 8.0 0.00 0.02 0.00 54 1013.1
20260506114545 54 77 0.0 3.0 0.00 0.02 0.00 56 1013.3
20260506113036 54 60 0.0 5.0 0.00 0.02 0.00 51 1013.4
20260506111528 53 115 0.0 9.0 0.00 0.02 0.00 55 1013.4
20260506110024 53 53 0.0 3.0 0.00 0.02 0.00 54 1013.5
20260506104559 52 167 0.0 7.0 0.00 0.02 0.00 56 1013.6
20260506103036 53 118 0.0 6.0 0.00 0.02 0.00 55 1013.5
20260506101512 53 28 0.0 8.0 0.00 0.02 0.00 54 1013.6
20260506100051 52 144 0.0 7.0 0.00 0.02 0.00 55 1013.7
20260506094533 52 121 0.0 6.0 0.00 0.02 0.00 55 1013.7
20260506093034 52 231 0.0 3.0 0.00 0.02 0.00 57 1013.5
20260506091512 51 105 1.0 7.0 0.00 0.02 0.00 57 1013.5
20260506090049 50 40 0.0 3.0 0.00 0.02 0.00 59 1013.5
20260506084541 50 115 0.0 0.0 0.00 0.02 0.00 61 1013.6
20260506083040 48 71 0.0 0.0 0.00 0.02 0.00 62 1013.6
20260506081525 48 115 0.0 0.0 0.00 0.02 0.00 68 1013.6
20260506073025 44 57 0.0 0.0 0.00 0.02 0.00 76 1013.5
20260506071522 41 57 0.0 0.0 0.00 0.02 0.00 86 1013.6
20260506070114 39 57 0.0 0.0 0.00 0.02 0.00 94 1013.7
20260506061552 32 360 0.0 0.0 0.00 0.02 0.00 94 1013.6
20260506044530 30 350 0.0 0.0 0.00 0.02 0.00 92 1013.3
20260506043020 30 350 0.0 0.0 0.00 0.02 0.00 92 1013.5
20260506041515 31 350 0.0 0.0 0.00 0.02 0.00 92 1013.4
20260506040014 31 350 0.0 0.0 0.00 0.02 0.00 93 1013.4
20260506034549 31 350 0.0 0.0 0.00 0.02 0.00 93 1013.5
20260506033019 31 350 0.0 0.0 0.00 0.02 0.00 93 1013.5
20260506031514 31 349 0.0 0.0 0.00 0.02 0.00 92 1013.4
20260506030114 31 350 0.0 0.0 0.00 0.02 0.00 92 1013.3
20260506024538 31 350 0.0 0.0 0.00 0.02 0.00 92 1013.4
20260506023033 31 350 0.0 0.0 0.00 0.02 0.00 92 1013.4
20260506021525 31 350 0.0 0.0 0.00 0.02 0.00 92 1013.4
20260506020021 31 349 0.0 0.0 0.00 0.02 0.00 92 1013.5
20260506014603 32 360 0.0 0.0 0.00 0.02 0.00 91 1013.4
20260506013040 32 360 0.0 0.0 0.00 0.02 0.00 91 1013.4
20260506011509 33 360 0.0 0.0 0.00 0.02 0.00 92 1013.5
20260506010054 33 360 0.0 0.0 0.00 0.02 0.00 91 1013.6
20260506004522 33 360 0.0 0.0 0.00 0.02 0.00 91 1013.7
20260506003101 33 360 0.0 0.0 0.00 0.02 0.00 92 1013.7
20260506001534 34 360 0.0 0.0 0.00 0.02 0.00 91 1013.7
20260506000007 34 360 0.0 0.0 0.00 0.02 0.00 91 1013.7
20260505234608 34 360 0.0 0.0 0.00 0.02 0.00 91 1013.7
20260505233020 35 360 0.0 0.0 0.00 0.02 0.00 90 1013.5
20260505231516 35 360 0.0 0.0 0.00 0.02 0.00 90 1013.4
20260505230014 35 360 0.0 0.0 0.00 0.02 0.00 91 1013.4
20260505224549 35 360 0.0 0.0 0.00 0.02 0.00 90 1013.4
20260505223025 36 360 0.0 0.0 0.00 0.02 0.00 90 1013.6
20260505221616 37 360 0.0 0.0 0.00 0.02 0.00 89 1013.7
20260505220034 37 360 0.0 1.0 0.00 0.02 0.02 90 1013.7
20260505214514 37 360 0.0 0.0 0.00 0.02 0.02 90 1013.7
20260505213012 38 360 0.0 0.0 0.00 0.02 0.02 89 1013.8
20260505211505 39 360 0.0 0.0 0.00 0.02 0.02 91 1013.9
20260505210046 39 360 0.0 0.0 0.00 0.02 0.02 91 1013.9
20260505204524 39 19 0.0 0.0 0.00 0.02 0.02 89 1013.6
20260505203055 40 34 0.0 0.0 0.00 0.02 0.02 87 1013.5
20260505201527 41 34 0.0 0.0 0.01 0.02 0.02 86 1013.3
20260505200107 42 34 0.0 0.0 0.01 0.02 0.02 86 1013.2